Weather History for PAJZ - August, 2014

Change the Weather History Date:

Monday, August 18, 2014

  Actual Average (PADQ) Record (PADQ)
Temperature  
Mean Temperature 58 °F 55 °F  
Max Temperature 68 °F 62 °F 74 °F (1995)
Min Temperature 48 °F 49 °F 41 °F (2012)
Degree Days  
Heating Degree Days 7 10  
Month to date heating degree days 166  
Since 1 June heating degree days 953  
Since 1 July heating degree days 492  
Cooling Degree Days 0    
Month to date cooling degree days  
Year to date cooling degree days  
Since 1 June cooling degree days  
Growing Degree Days 8 (Base 50)    
Moisture  
Dew Point 50 °F    
Average Humidity 77    
Maximum Humidity 97    
Minimum Humidity 49    
Precipitation  
Precipitation 0.00 in 0.14 in 3.92 in (1993)
Month to date precipitation 2.53  
Year to date precipitation 44.76  
Snow  
Snow 0.00 in 0.00 in 0.00 in (2014)
Month to date snowfall 0.0  
Since 1 June snowfall 0.0  
Since 1 July snowfall 0.0  
Snow Depth -    
Sea Level Pressure  
Sea Level Pressure 29.97 in    
Wind  
Wind Speed 6 mph (SW)    
Max Wind Speed 9 mph    
Max Gust Speed -    
Visibility 10 miles    
Events      
T = Trace of Precipitation, MM = Missing Value Source: NWS Daily Summary

Daily Weather History Graph

Daily Weather History Graph

Search for Another Location

Airport or City:

Trip Planner

Search our weather history database for the weather conditions in past years. The results will help you decide how hot, cold, wet, or windy it might be!

Date:

Astronomy

Aug. 18, 2014 Rise Set
Actual Time 6:52 AM AKDT 10:11 PM AKDT
Civil Twilight 6:03 AM AKDT 11:00 PM AKDT
Nautical Twilight 4:52 AM AKDT 12:09 AM AKDT
Astronomical Twilight 3:05 AM AKDT 2:00 AM AKDT
Moon 12:46 AM AKDT (8/18) 5:51 PM AKDT (8/18)
Length of Visible Light 16h 57m
Length of Day
15h 19m
Last Quarter, 37% of the Moon is Illuminated
Aug 18
Last Quarter
Aug 25
New
Sep 2
First Quarter
Sep 8
Full
Sep 15
Last Quarter

Hourly Weather History & Observations

Time (AKDT) Temp. Dew Point Humidity Pressure Visibility Wind Dir Wind Speed Gust Speed Precip Events Conditions
12:56 AM 48.9 °F 46.9 °F 93% 29.81 in 10.0 mi South 4.6 mph - N/A   Partly Cloudy
1:56 AM 50.9 °F 48.9 °F 93% 29.83 in 10.0 mi SSW 5.8 mph - N/A   Overcast
2:56 AM 50.9 °F 48.9 °F 93% 29.85 in 10.0 mi SSW 6.9 mph - N/A   Mostly Cloudy
3:56 AM 50.9 °F 50.0 °F 97% 29.86 in 10.0 mi SSW 8.1 mph - 0.00 in   Mostly Cloudy
4:56 AM 50.9 °F 48.9 °F 93% 29.88 in 10.0 mi SW 8.1 mph - N/A   Overcast
5:56 AM 50.0 °F 47.8 °F 92% 29.90 in 10.0 mi SW 6.9 mph - N/A   Overcast
6:56 AM 48.9 °F 46.9 °F 93% 29.92 in 10.0 mi South 5.8 mph - N/A   Overcast
7:56 AM 48.9 °F 46.9 °F 93% 29.93 in 10.0 mi South 5.8 mph - N/A   Overcast
8:56 AM 48.9 °F 46.9 °F 93% 29.95 in 10.0 mi SSW 8.1 mph - N/A   Scattered Clouds
9:56 AM 54.9 °F 50.0 °F 84% 29.96 in 10.0 mi SW 8.1 mph - N/A   Scattered Clouds
10:56 AM 57.9 °F 50.9 °F 77% 29.97 in 10.0 mi SW 6.9 mph - N/A   Clear
11:56 AM 59.9 °F 50.9 °F 72% 29.99 in 10.0 mi SW 4.6 mph - N/A   Partly Cloudy
12:56 PM 62.6 °F 51.8 °F 68% 30.03 in 10.0 mi Variable 3.5 mph - N/A   Mostly Cloudy
1:15 PM 64.4 °F 51.8 °F 64% 30.03 in 10.0 mi NNW 4.6 mph - N/A   Overcast
1:32 PM 64.4 °F 50.0 °F 59% 30.03 in 10.0 mi Calm Calm - N/A   Mostly Cloudy
1:56 PM 66.9 °F 50.9 °F 56% 30.01 in 10.0 mi NW 5.8 mph - N/A   Mostly Cloudy
2:56 PM 66.9 °F 50.9 °F 56% 30.01 in 10.0 mi South 3.5 mph - N/A   Clear
3:56 PM 65.8 °F 52.0 °F 61% 30.01 in 10.0 mi WSW 6.9 mph - N/A   Clear
4:56 PM 68.9 °F 48.9 °F 49% 30.01 in 10.0 mi Variable 4.6 mph - N/A   Scattered Clouds
5:56 PM 63.9 °F 50.9 °F 63% 30.01 in 10.0 mi SW 9.2 mph - N/A   Scattered Clouds
6:56 PM 63.9 °F 52.0 °F 65% 30.00 in 10.0 mi South 8.1 mph - N/A   Partly Cloudy
7:56 PM 61.0 °F 52.9 °F 75% 30.01 in 10.0 mi WSW 4.6 mph - N/A   Clear
8:56 PM 61.9 °F 52.9 °F 72% 30.02 in 10.0 mi NW 4.6 mph - N/A   Mostly Cloudy
9:56 PM 60.8 °F 51.8 °F 72% 30.06 in 10.0 mi North 4.6 mph - N/A   Overcast
10:56 PM 57.9 °F 52.0 °F 81% 30.05 in 10.0 mi NNE 6.9 mph - N/A   Overcast
11:56 PM 55.9 °F 50.9 °F 83% 30.06 in 10.0 mi North 6.9 mph - N/A   Overcast